Weather in Satti

Russia / Chechen Republic     42°51′11″N   45°42′56″E
temp.,
°C
wind,
m/s
gust,
m/s
humid.,
%
clouds,
%
prec.,
mm/h
press.,
hPa
HPBL,
m
24 may, tue
tue2400:00+6nnw23100100 7.6 1006316
03:00+5nnw1299100 11.8 1007309
06:00+5n23100100 2.7 1008386
09:00+4nnw1299100 6.8 1010336
12:00+4nnw1298100 2.6 1011319
15:00+4wsw1196100 4.8 1012315
18:00+5w019279 1.3 1012417
21:00+5sw1195100 1.8 1014200
25 may, wed
wed2500:00+4n1197100 0.9 1014253
03:00+4nw12100100 4.4 1015278
06:00+3nw22100100 8.8 1018333
09:00+3wnw1199100 14.0 1020240
12:00+4nw0198100 1.6 1020320
15:00+6nnw118899 2.2 1020471
18:00+6n118489 0.3 1021359
21:00+2s329418 0.4 102532
26 may, thu
thu2600:00+1s33905 0.0 102536
03:000s33875 0.0 102537
06:00+4s22805 0.0 102373
09:00+9n116667 0.1 10211165
12:00+10n327094 0.3 10201104
15:00+9n228080 0.7 1021690
18:00+9n118252 0.1 1020290
21:00+4s33915 0.1 102341
27 may, fri
fri2700:00+3s348694 0.0 102263
03:00+3s448428 0.0 102260
06:00+6s337245 0.0 102177
09:00+13n21454 0.0 1019910
12:00+16n32434 0.0 10181534
15:00+16n32517 0.0 10181363
18:00+12n227630 0.0 1020472
21:00+7s22931 0.0 102221
28 may, sat
sat2800:00+6s33870 0.0 102139
03:00+5s34820 0.0 102056
06:00+8sse34730 0.0 1019113
09:00+17nne12420 0.0 10151048
12:00+21n33410 0.0 10131604
15:00+19nnw33546 0.0 10131166
18:00+16n21780 0.1 1015223
21:00+10s33800 0.1 101746